Tracking 33068 objects as of 25-Jan-2026
HD Live streaming from Space Station
objects crossing your sky now

STARLINK-5879

Track STARLINK-5879 now!
10-day predictions
STARLINK-5879 is classified as:


NORAD ID: 57153
Int'l Code: 2023-090BE
Perigee: 565.2 km
Apogee: 567.2 km
Inclination: 43.0 °
Period: 95.8 minutes
Semi major axis: 6937 km
RCS: Unknown
Launch date: June 23, 2023
Source: United States (US)
Launch site: AIR FORCE EASTERN TEST RANGE (AFETR)
Your satellite tracking list
Your tracking list is empty




NASA's NSSDC Master Catalog

Two Line Element Set (TLE):
1 57153U 23090BE  26024.63998393  .00003000  00000-0  23698-3 0  9993
2 57153  43.0030 128.2662 0001475 266.4043  93.6631 15.02550494143586
Source of the keplerian elements: AFSPC